Hourly Data Report for October 26, 2014

All times are specified in Local Standard Time (LST). Add 1 hour to adjust for Daylight Saving Time where and when it is observed.

BATHURST A
NEW BRUNSWICK

47°37'47.000" N
65°44'20.000" W
58.80 m
8100505
71574
ZBF

Download Data

Hourly Data (October 2014)
Hourly Data Report for October 26, 2014
Temp Definition
°C
Dew Point Temp Definition
°C
Rel Hum Definition
%
Wind Dir Definition
10's deg

Wind Spd Definition
km/h
Visibility Definition
km
Stn Press Definition
kPa
Hmdx Definition


Wind Chill Definition


Weather Definition


TIME
00:00 Legend Double Dagger 3.6 3.2 97 31 7 6.4 99.27     Fog
01:00 Legend Double Dagger 3.5 3.1 97 33 5 4.8 99.19     Fog
02:00 Legend Double Dagger 3.5 3.2 98 29 5 4.8 99.18     Fog
03:00 Legend Double Dagger 3.5 3.2 98 35 4 4.8 99.09     Fog
04:00 Legend Double Dagger 3.5 3.1 97 29 4 9.7 99.09     Fog
05:00 Legend Double Dagger 3.3 2.9 97 36 2 9.7 99.06     Fog
06:00 Legend Double Dagger 2.9 2.6 98 36 1 9.7 98.98     Fog
07:00 Legend Double Dagger 2.7 2.4 98 22 5 8.1 98.96     Fog
08:00 Legend Double Dagger 3.0 2.7 98 23 4 8.1 98.96     Fog
09:00 Legend Double Dagger 4.1 3.5 96 21 4 11.3 98.96     LegendNANA
10:00 Legend Double Dagger 4.4 3.4 93 20 3 19.3 98.94     LegendNANA
11:00 Legend Double Dagger 5.0 3.8 92 15 5 24.1 98.91     Cloudy
12:00 Legend Double Dagger 5.4 4.2 92 17 4 24.1 98.87     LegendNANA
13:00 Legend Double Dagger 5.5 4.3 92 19 4 24.1 98.82     LegendNANA
14:00 Legend Double Dagger 6.1 4.8 91 34 6 24.1 98.78     Cloudy
15:00 Legend Double Dagger 6.5 5.1 91 3 5 24.1 98.78     LegendNANA
16:00 Legend Double Dagger 6.1 4.9 92 2 6 24.1 98.82     LegendNANA
17:00 Legend Double Dagger 5.8 4.9 94 3 5 24.1 98.85     Cloudy
18:00 Legend Double Dagger 5.5 4.9 96 33 5 8.1 98.87     Drizzle,Fog
19:00 Legend Double Dagger 5.4 5.1 98 34 5 2.4 98.89     Drizzle,Fog
20:00 Legend Double Dagger 5.6 5.3 98 33 7 12.9 98.91     Rain
21:00 Legend Double Dagger 5.7 5.4 98 34 8 16.1 98.89     Rain
22:00 Legend Double Dagger 5.7 5.4 98 34 12 4.8 98.84     Rain,Fog
23:00 Legend Double Dagger 5.6 5.3 98 32 9 2.4 98.87     Rain,Fog

Notes on Data Quality.

Legend

  • E = Estimated
  • M = Missing
  • NA = Not Available
  • ‡ = Partner data that is not subject to review by the National Climate Archives
Date modified: